Location: Pine Mountain Observatory
(43.7910°N, 120.9377°W)
Time: 14:06:14
(UTC-07:00)

Explorer 11/Cluster Stage 4 - Pass Details

Date: 03 June 2019
Orbit: 467 x 1260 km, 28.8° (Epoch: 19 June)

Event Time Altitude Azimuth Distance (km) Brightness Sun altitude
Rises 03:08:54 0° 254° (WSW) 4,029 - -17.8°
Reaches altitude 10° 03:12:58 10° 236° (SW) 2,938 - -17.4°
Maximum altitude 03:17:19 17° 199° (SSW) 2,293 - -17.0°
Exits shadow 03:20:39 12° 166° (SSE) 2,494 8.8 -16.6°
Drops below altitude 10° 03:21:13 10° 161° (SSE) 2,591 8.9 -16.6°
Sets 03:24:31 0° 141° (SE) 3,364 9.7 -16.3°
